Weather History for KCOD - October, 2014

Change the Weather History Date:

Thursday, October 16, 2014

  Actual Average Record
Temperature  
Mean Temperature 48 °F -  
Max Temperature 55 °F 58 °F 79 °F (1926)
Min Temperature 42 °F 34 °F 14 °F (1930)
Degree Days  
Heating Degree Days 16    
Moisture  
Dew Point 24 °F    
Average Humidity 35    
Maximum Humidity 49    
Minimum Humidity 26    
Precipitation  
Precipitation 0.00 in - - ()
Sea Level Pressure  
Sea Level Pressure 30.07 in    
Wind  
Wind Speed 12 mph (NW)    
Max Wind Speed 26 mph    
Max Gust Speed 45 mph    
Visibility 10 miles    
Events      
Averages and records for this station are not official NWS values.
T = Trace of Precipitation, MM = Missing Value Source: NWS Daily Summary

Daily Weather History Graph

Daily Weather History Graph

Search for Another Location

Airport or City:

Trip Planner

Search our weather history database for the weather conditions in past years. The results will help you decide how hot, cold, wet, or windy it might be!

Date:

Astronomy

Oct. 16, 2014 Rise Set
Actual Time 7:32 AM MDT 6:29 PM MDT
Civil Twilight 7:03 AM MDT 6:59 PM MDT
Nautical Twilight 6:29 AM MDT 7:32 PM MDT
Astronomical Twilight 5:55 AM MDT 8:06 PM MDT
Moon 12:31 AM MDT (10/16) 2:56 PM MDT (10/16)
Length of Visible Light 11h 56m
Length of Day
10h 57m
Last Quarter, 41% of the Moon is Illuminated
Oct 16
Last Quarter
Oct 23
New
Oct 30
First Quarter
Nov 6
Full
Nov 14
Last Quarter

Hourly Weather History & Observations

Time (MDT) Temp. Windchill Dew Point Humidity Pressure Visibility Wind Dir Wind Speed Gust Speed Precip Events Conditions
12:15 AM - - - N/A% 29.88 in 10.0 mi West 25.3 mph 42.6 mph N/A   Clear
12:35 AM - - - N/A% 29.89 in 10.0 mi West 26.5 mph 42.6 mph N/A   Clear
12:55 AM - - - N/A% 29.91 in 10.0 mi West 25.3 mph 44.9 mph N/A   Clear
1:15 AM - - - N/A% 29.93 in 10.0 mi West 23.0 mph 38.0 mph N/A   Clear
1:35 AM - - - N/A% 29.94 in 10.0 mi West 17.3 mph 35.7 mph N/A   Clear
1:55 AM - - - N/A% 29.96 in 10.0 mi West 16.1 mph 25.3 mph N/A   Clear
2:15 AM - - - N/A% 29.99 in 10.0 mi WNW 8.1 mph 21.9 mph N/A   Clear
2:35 AM - - - N/A% 30.01 in 10.0 mi WSW 6.9 mph - N/A   Clear
2:55 AM - - - N/A% 30.01 in 10.0 mi WSW 8.1 mph - N/A   Clear
3:15 AM - - - N/A% 30.01 in 10.0 mi WSW 10.4 mph 19.6 mph N/A   Clear
3:35 AM - - - N/A% 30.02 in 10.0 mi West 13.8 mph 17.3 mph N/A   Clear
3:55 AM - - - N/A% 30.03 in 10.0 mi West 9.2 mph 17.3 mph N/A   Clear
4:15 AM - - - N/A% 30.03 in 10.0 mi West 10.4 mph 17.3 mph N/A   Clear
4:35 AM - - - N/A% 30.02 in 10.0 mi WNW 9.2 mph 18.4 mph N/A   Clear
4:55 AM - - - N/A% 30.03 in 10.0 mi WNW 8.1 mph - N/A   Clear
5:15 AM - - - N/A% 30.03 in 10.0 mi West 8.1 mph 16.1 mph N/A   Clear
5:35 AM - - - N/A% 30.05 in 10.0 mi West 8.1 mph - N/A   Clear
5:55 AM - - - N/A% 30.04 in 10.0 mi WSW 6.9 mph - N/A   Clear
6:15 AM - - - N/A% 30.04 in 10.0 mi West 10.4 mph 16.1 mph N/A   Clear
6:35 AM - - - N/A% 30.06 in 10.0 mi West 8.1 mph - N/A   Clear
6:55 AM - - - N/A% 30.06 in 10.0 mi West 4.6 mph - N/A   Clear
7:15 AM - - - N/A% 30.06 in 10.0 mi NNW 5.8 mph - N/A   Clear
7:35 AM - - - N/A% 30.06 in 10.0 mi NE 5.8 mph - N/A   Clear
7:55 AM - - - N/A% 30.06 in 10.0 mi Calm Calm - N/A   Clear
8:15 AM - - - N/A% 30.06 in 10.0 mi SSW 4.6 mph - N/A   Clear
8:35 AM - - - N/A% 30.06 in 10.0 mi WSW 9.2 mph - N/A   Clear
8:55 AM - - - N/A% 30.07 in 10.0 mi WSW 11.5 mph 20.7 mph N/A   Clear
9:15 AM - - - N/A% 30.09 in 10.0 mi WNW 3.5 mph 19.6 mph N/A   Clear
9:35 AM - - - N/A% 30.09 in 10.0 mi West 6.9 mph - N/A   Clear
9:55 AM - - - N/A% 30.09 in 10.0 mi WNW 6.9 mph - N/A   Clear
10:15 AM - - - N/A% 30.09 in 10.0 mi WNW 8.1 mph - N/A   Clear
10:35 AM - - - N/A% 30.10 in 10.0 mi NNE 8.1 mph - N/A   Partly Cloudy
10:55 AM 50.0 °F - 24.8 °F 37% 30.11 in 10.0 mi NE 3.5 mph - N/A   Clear
11:15 AM - - - N/A% 30.11 in 10.0 mi NNE 5.8 mph - N/A   Clear
11:35 AM 53.6 °F - 24.8 °F 33% 30.11 in 10.0 mi NE 3.5 mph - N/A   Clear
11:55 AM 53.6 °F - 21.2 °F 28% 30.11 in 5.0 mi ENE 6.9 mph - N/A   Clear
12:15 PM 53.6 °F - 26.6 °F 35% 30.12 in 10.0 mi NNE 5.8 mph - N/A   Clear
12:35 PM - - - N/A% 30.10 in 10.0 mi NNE 11.5 mph - N/A   Clear
12:55 PM - - - N/A% 30.10 in 10.0 mi NNE 13.8 mph 17.3 mph N/A   Clear
1:15 PM - - - N/A% 30.10 in 10.0 mi North 11.5 mph - N/A   Clear
1:35 PM 53.6 °F - 24.8 °F 33% 30.11 in 10.0 mi North 9.2 mph - N/A   Clear
1:55 PM 53.6 °F - 26.6 °F 35% 30.10 in 10.0 mi NE 8.1 mph - N/A   Clear
2:15 PM 53.6 °F - 28.4 °F 38% 30.10 in 10.0 mi NE 5.8 mph - N/A   Clear
2:35 PM 55.4 °F - 24.8 °F 31% 30.09 in 10.0 mi NNE 10.4 mph - N/A   Clear
2:55 PM 53.6 °F - 24.8 °F 33% 30.08 in 10.0 mi NNE 9.2 mph - N/A   Clear
3:15 PM 53.6 °F - 26.6 °F 35% 30.08 in 10.0 mi NNE 6.9 mph - N/A   Clear
3:35 PM 53.6 °F - 28.4 °F 38% 30.08 in 10.0 mi NNE 6.9 mph - N/A   Clear
3:55 PM 53.6 °F - 24.8 °F 33% 30.08 in 10.0 mi NNE 4.6 mph - N/A   Clear
4:15 PM 55.4 °F - 23.0 °F 29% 30.08 in 10.0 mi NNE 6.9 mph - N/A   Clear
4:35 PM 55.4 °F - 21.2 °F 26% 30.08 in 10.0 mi ESE 4.6 mph - N/A   Clear
4:55 PM 55.4 °F - 21.2 °F 26% 30.08 in 10.0 mi ENE 3.5 mph - N/A   Clear
5:15 PM 55.4 °F - 21.2 °F 26% 30.09 in 10.0 mi ENE 4.6 mph - N/A   Clear
5:35 PM 53.6 °F - 21.2 °F 28% 30.09 in 10.0 mi East 5.8 mph - N/A   Clear
5:55 PM 53.6 °F - 21.2 °F 28% 30.10 in 10.0 mi NE 3.5 mph - N/A   Clear
6:15 PM 51.8 °F - 24.8 °F 35% 30.10 in 10.0 mi NNE 3.5 mph - N/A   Partly Cloudy
6:35 PM 48.2 °F - 24.8 °F 40% 30.11 in 10.0 mi NNE 4.6 mph - N/A   Partly Cloudy
6:55 PM 48.2 °F - 24.8 °F 40% 30.11 in 10.0 mi NE 4.6 mph - N/A   Partly Cloudy
7:15 PM 48.2 °F - 24.8 °F 40% 30.11 in 10.0 mi NNE 3.5 mph - N/A   Clear
7:35 PM 48.2 °F - 23.0 °F 37% 30.11 in 10.0 mi West 4.6 mph - N/A   Clear
7:55 PM 46.4 °F - 24.8 °F 43% 30.12 in 10.0 mi Calm Calm - N/A   Clear
8:15 PM 46.4 °F 44.3 °F 24.8 °F 43% 30.12 in 10.0 mi WNW 4.6 mph - N/A   Clear
8:35 PM 46.4 °F 45.2 °F 23.0 °F 40% 30.13 in 10.0 mi West 3.5 mph - N/A   Clear
8:55 PM 42.8 °F - 24.8 °F 49% 30.13 in 10.0 mi Calm Calm - N/A   Clear
9:15 PM 44.6 °F - 24.8 °F 46% 30.12 in 10.0 mi Calm Calm - N/A   Clear
9:35 PM - - - N/A% 30.12 in 10.0 mi WNW 3.5 mph - N/A   Clear
9:55 PM - - - N/A% 30.12 in 10.0 mi Calm Calm - N/A   Clear
10:15 PM - - - N/A% 30.12 in 10.0 mi Calm Calm - N/A   Clear
10:35 PM - - - N/A% 30.12 in 10.0 mi South 3.5 mph - N/A   Scattered Clouds
10:55 PM - - - N/A% 30.12 in 10.0 mi SSE 5.8 mph - N/A   Overcast
11:15 PM - - - N/A% 30.12 in 10.0 mi South 4.6 mph - N/A   Overcast
11:35 PM - - - N/A% 30.12 in 10.0 mi South 4.6 mph - N/A   Overcast
11:55 PM - - - N/A% 30.12 in 10.0 mi South 4.6 mph - N/A   Overcast